072  
SXUS52 KCHS 160027  
OSOCHS  
 
MARINE OBSERVATIONS  
NATIONAL WEATHER SERVICE CHARLESTON SC  
800 PM EDT MON JUL 15 2019  
   
..DOWNTOWN CHARLESTON AND HARBOR
 
 
 
CITY SKY/WX TMP DP RH WIND PRES REMARKS  
WATERFRONT PRK N/A 84 76 77 CALM 29.89S HX 93  
   
..LAKE MOULTRIE
 
 
 
CITY SKY/WX TMP DP RH WIND PRES REMARKS  
PINOPOLIS N/A 84 75 74 CALM 29.97F HX 92  
   
..LAKE AND SUPPLEMENTAL COASTAL OBSERVATIONS
 
 
 
STATION/POSITION TIME TEMP WIND PRES WAVE SWELL  
AIR SEA DIR/SP/G HT/PER HT/PER/DIR  
(UTC) (F) (DEG/KT/KT) (MB) (FT/S) (FT/S/D)  
FORT PULASKI 2342 89 86 170/ 4/ 5 1018.1R  
SAPELO ISLAND 0000 92 20/ 2 1018.0  
WINYAH BAY 2345 88 250/ 3 1017.0S  
LAKE MURRAY 0020 84 250/ 4/ 6 1017.6  
ACE BASIN NERRS 2345 87 130/ 1 1017.0S  
 
   
..C-MAN AND BUOY OBSERVATIONS
 
 
 
STATION/POSITION TIME TEMP WIND PRES WAVE SWELL  
AIR SEA DIR/SP/G HT/PER HT/PER/DIR  
(UTC) (F) (DEG/KT/KT) (MB) (FT/S) (FT/S/D)  
BUOY 41004 0010 86 87 260/ 4/ 6 1017.5  
BUOY 41008 2350 86 86 190/ 12/ 12 1017.5R 1/ 8  
FOLLY BEACH CMAN 0000 85 240/ 3/ 3 1018.1R  
PRITCHARDS ISLAN NOT AVBL  
CAPERS NS BUOY 0008 84 85 140/ 2/ 4 1017.2F  
FRIPP NS BUOY 0008 88 89 210/ 8/ 12 1017.4R  
5E ST. MARYS GA 0000 84 N/A 1/ 9  
 
 
STATION/POSITION TIME TEMP WIND PRES WAVE SWELL  
AIR SEA DIR/SP/G HT/PER HT/PER/DIR  
(UTC) (F) (DEG/KT/KT) (MB) (FT/S) (FT/S/D)  
FRYING PAN BUOY 0010 85 85 250/ 6/ 8 1017.2  
BUOY 41025 0010 85 84 210/ 8/ 10 1017.3  
CAPE LOOKOUT NC 0000 85 180/ 7/ 8 1017.4R  
BUOY 41002 0010 83 83 240/ 12/ 14 1018.8  
BUOY 41010 0010 85 85 270/ 2/ 2 N/A  
ST AUGUSTINE FL 0000 82 79 180/ 8/ 8 1018.8R  
 

 
 
 
CLICK HERE TO GO TO PREVIOUS BULLETINS.

The Nexlab SC Page
The Nexlab GA Page Main Text Page